Time,TemperatureF,DewpointF,PressureIn,WindDirection,WindDirectionDegrees,WindSpeedMPH,WindSpeedGustMPH,Humidity,HourlyPrecipIn,Conditions,Clouds,dailyrainin,SoftwareType,DateUTC
2013-08-22 00:02:00,81.1,57.2,28.55,East,90,5.0,8.0,44,0.00,,,0.00,meteohub,2013-08-22 05:02:00,
2013-08-22 00:07:00,81.3,57.9,28.55,NW,315,5.0,8.0,45,0.00,,,0.00,meteohub,2013-08-22 05:07:00,
2013-08-22 00:12:00,81.1,57.7,28.55,South,180,5.0,8.0,45,0.00,,,0.00,meteohub,2013-08-22 05:12:00,
2013-08-22 00:17:00,81.3,57.9,28.56,SE,135,2.0,8.0,45,0.00,,,0.00,meteohub,2013-08-22 05:17:00,
2013-08-22 00:22:00,81.0,58.3,28.55,East,90,3.0,7.0,46,0.00,,,0.00,meteohub,2013-08-22 05:22:00,
2013-08-22 00:27:00,80.8,58.1,28.55,NE,45,8.0,8.0,46,0.00,,,0.00,meteohub,2013-08-22 05:27:00,
2013-08-22 00:32:00,80.8,58.6,28.56,South,180,2.0,8.0,47,0.00,,,0.00,meteohub,2013-08-22 05:32:00,
2013-08-22 00:37:00,80.4,58.3,28.55,East,90,1.0,8.0,47,0.00,,,0.00,meteohub,2013-08-22 05:37:00,
2013-08-22 00:43:00,80.1,58.6,28.55,East,90,1.0,8.0,48,0.00,,,0.00,meteohub,2013-08-22 05:43:00,
2013-08-22 00:48:00,79.7,58.3,28.55,NE,45,1.0,5.0,48,0.00,,,0.00,meteohub,2013-08-22 05:48:00,
2013-08-22 00:53:00,79.5,58.6,28.56,SE,135,1.0,5.0,49,0.00,,,0.00,meteohub,2013-08-22 05:53:00,
2013-08-22 00:58:00,79.5,58.6,28.56,East,90,1.0,5.0,49,0.00,,,0.00,meteohub,2013-08-22 05:58:00,
2013-08-22 01:03:00,79.3,59.0,28.56,SE,135,1.0,4.0,50,0.00,,,0.00,meteohub,2013-08-22 06:03:00,
2013-08-22 01:08:00,79.2,59.0,28.56,East,90,4.0,4.0,50,0.00,,,0.00,meteohub,2013-08-22 06:08:00,
2013-08-22 01:13:00,78.8,58.6,28.56,SE,135,1.0,4.0,50,0.00,,,0.00,meteohub,2013-08-22 06:13:00,
2013-08-22 01:18:00,78.4,58.8,28.55,East,90,2.0,4.0,51,0.00,,,0.00,meteohub,2013-08-22 06:18:00,
2013-08-22 01:23:00,78.6,59.0,28.55,SSE,158,1.0,4.0,51,0.00,,,0.00,meteohub,2013-08-22 06:23:00,
2013-08-22 01:28:00,78.6,59.0,28.55,SE,135,1.0,4.0,51,0.00,,,0.00,meteohub,2013-08-22 06:28:00,
2013-08-22 01:33:00,78.3,59.2,28.55,SE,135,1.0,2.0,52,0.00,,,0.00,meteohub,2013-08-22 06:33:00,
2013-08-22 01:38:00,78.1,59.0,28.55,East,90,4.0,4.0,52,0.00,,,0.00,meteohub,2013-08-22 06:38:00,
2013-08-22 01:43:00,78.3,59.2,28.55,SE,135,1.0,4.0,52,0.00,,,0.00,meteohub,2013-08-22 06:43:00,
2013-08-22 01:48:00,78.1,59.0,28.55,East,90,1.0,4.0,52,0.00,,,0.00,meteohub,2013-08-22 06:48:00,
2013-08-22 01:53:00,77.9,59.4,28.55,East,90,1.0,4.0,53,0.00,,,0.00,meteohub,2013-08-22 06:53:00,
2013-08-22 01:58:00,77.9,59.4,28.55,East,90,1.0,4.0,53,0.00,,,0.00,meteohub,2013-08-22 06:58:00,
2013-08-22 02:03:00,77.5,59.5,28.54,SE,135,1.0,4.0,54,0.00,,,0.00,meteohub,2013-08-22 07:03:00,
2013-08-22 02:08:00,77.5,59.5,28.54,South,180,1.0,4.0,54,0.00,,,0.00,meteohub,2013-08-22 07:08:00,
2013-08-22 02:13:00,77.4,59.4,28.54,East,90,1.0,2.0,54,0.00,,,0.00,meteohub,2013-08-22 07:13:00,
2013-08-22 02:18:00,77.4,59.4,28.54,East,90,1.0,2.0,54,0.00,,,0.00,meteohub,2013-08-22 07:18:00,
2013-08-22 02:23:00,77.2,59.2,28.54,East,90,1.0,2.0,54,0.00,,,0.00,meteohub,2013-08-22 07:23:00,
2013-08-22 02:28:00,77.0,59.5,28.54,East,90,1.0,4.0,55,0.00,,,0.00,meteohub,2013-08-22 07:28:00,
2013-08-22 02:33:00,77.0,59.5,28.54,SE,135,1.0,4.0,55,0.00,,,0.00,meteohub,2013-08-22 07:33:00,
2013-08-22 02:38:00,77.0,59.5,28.53,East,90,1.0,1.0,55,0.00,,,0.00,meteohub,2013-08-22 07:38:00,
2013-08-22 02:43:00,76.8,59.9,28.53,East,90,1.0,1.0,56,0.00,,,0.00,meteohub,2013-08-22 07:43:00,
2013-08-22 02:48:00,76.5,59.5,28.54,East,90,0.0,1.0,56,0.00,,,0.00,meteohub,2013-08-22 07:48:00,
2013-08-22 02:53:00,76.6,59.7,28.54,SE,135,2.0,3.0,56,0.00,,,0.00,meteohub,2013-08-22 07:53:00,
2013-08-22 02:58:00,76.6,59.7,28.54,East,90,1.0,3.0,56,0.00,,,0.00,meteohub,2013-08-22 07:58:00,
2013-08-22 03:03:00,76.5,60.1,28.54,NE,45,1.0,3.0,57,0.00,,,0.00,meteohub,2013-08-22 08:03:00,
2013-08-22 03:08:00,76.5,60.1,28.54,SE,135,1.0,2.0,57,0.00,,,0.00,meteohub,2013-08-22 08:08:00,
2013-08-22 03:13:00,76.5,60.1,28.54,East,90,1.0,1.0,57,0.00,,,0.00,meteohub,2013-08-22 08:13:00,
2013-08-22 03:18:00,76.6,60.3,28.55,East,90,1.0,1.0,57,0.00,,,0.00,meteohub,2013-08-22 08:18:00,
2013-08-22 03:23:00,76.5,60.1,28.54,East,90,1.0,1.0,57,0.00,,,0.00,meteohub,2013-08-22 08:23:00,
2013-08-22 03:28:00,76.1,60.3,28.55,NE,45,1.0,1.0,58,0.00,,,0.00,meteohub,2013-08-22 08:28:00,
2013-08-22 03:33:00,75.4,59.5,28.55,East,90,0.0,1.0,58,0.00,,,0.00,meteohub,2013-08-22 08:33:00,
2013-08-22 03:38:00,74.8,59.5,28.55,East,90,0.0,1.0,59,0.00,,,0.00,meteohub,2013-08-22 08:38:00,
2013-08-22 03:43:00,74.8,60.1,28.55,East,90,1.0,1.0,60,0.00,,,0.00,meteohub,2013-08-22 08:43:00,
2013-08-22 03:49:00,74.7,59.9,28.55,East,90,0.0,1.0,60,0.00,,,0.00,meteohub,2013-08-22 08:49:00,
2013-08-22 03:54:00,74.3,59.9,28.55,East,90,1.0,1.0,61,0.00,,,0.00,meteohub,2013-08-22 08:54:00,
2013-08-22 03:59:00,74.5,60.1,28.55,East,90,0.0,1.0,61,0.00,,,0.00,meteohub,2013-08-22 08:59:00,
2013-08-22 04:04:00,74.5,60.1,28.55,NE,45,1.0,1.0,61,0.00,,,0.00,meteohub,2013-08-22 09:04:00,
2013-08-22 04:09:00,74.7,60.3,28.55,East,90,1.0,1.0,61,0.00,,,0.00,meteohub,2013-08-22 09:09:00,
2013-08-22 04:14:00,74.7,60.8,28.54,East,90,1.0,1.0,62,0.00,,,0.00,meteohub,2013-08-22 09:14:00,
2013-08-22 04:19:00,74.7,60.8,28.54,East,90,1.0,1.0,62,0.00,,,0.00,meteohub,2013-08-22 09:19:00,
2013-08-22 04:24:00,74.8,61.0,28.54,ESE,113,1.0,1.0,62,0.00,,,0.00,meteohub,2013-08-22 09:24:00,
2013-08-22 04:29:00,75.0,61.2,28.54,SE,135,1.0,1.0,62,0.00,,,0.00,meteohub,2013-08-22 09:29:00,
2013-08-22 04:34:00,75.4,61.5,28.54,East,90,5.0,5.0,62,0.00,,,0.00,meteohub,2013-08-22 09:34:00,
2013-08-22 04:39:00,75.7,61.3,28.54,East,90,1.0,5.0,61,0.00,,,0.00,meteohub,2013-08-22 09:39:00,
2013-08-22 04:44:00,75.4,61.0,28.54,East,90,1.0,5.0,61,0.00,,,0.00,meteohub,2013-08-22 09:44:00,
2013-08-22 04:49:00,74.7,60.8,28.54,East,90,1.0,5.0,62,0.00,,,0.00,meteohub,2013-08-22 09:49:00,
2013-08-22 04:54:00,74.1,60.8,28.54,East,90,0.0,4.0,63,0.00,,,0.00,meteohub,2013-08-22 09:54:00,
2013-08-22 04:59:00,73.8,60.8,28.53,East,90,1.0,1.0,64,0.00,,,0.00,meteohub,2013-08-22 09:59:00,
2013-08-22 05:04:00,73.6,61.2,28.54,NE,45,1.0,1.0,65,0.00,,,0.00,meteohub,2013-08-22 10:04:00,
2013-08-22 05:09:00,73.4,61.0,28.54,East,90,1.0,1.0,65,0.00,,,0.00,meteohub,2013-08-22 10:09:00,
2013-08-22 05:14:00,73.4,61.0,28.54,East,90,1.0,1.0,65,0.00,,,0.00,meteohub,2013-08-22 10:14:00,
2013-08-22 05:19:00,73.2,61.2,28.54,North,0,1.0,1.0,66,0.00,,,0.00,meteohub,2013-08-22 10:19:00,
2013-08-22 05:24:00,72.9,60.8,28.54,East,90,1.0,1.0,66,0.00,,,0.00,meteohub,2013-08-22 10:24:00,
2013-08-22 05:29:00,72.9,61.3,28.54,East,90,1.0,1.0,67,0.00,,,0.00,meteohub,2013-08-22 10:29:00,
2013-08-22 05:34:00,72.9,61.7,28.54,East,90,1.0,1.0,68,0.00,,,0.00,meteohub,2013-08-22 10:34:00,
2013-08-22 05:39:00,73.4,62.2,28.54,ENE,68,1.0,1.0,68,0.00,,,0.00,meteohub,2013-08-22 10:39:00,
2013-08-22 05:44:00,73.4,62.2,28.54,East,90,1.0,1.0,68,0.00,,,0.00,meteohub,2013-08-22 10:44:00,
2013-08-22 05:49:00,73.4,62.2,28.54,East,90,1.0,1.0,68,0.00,,,0.00,meteohub,2013-08-22 10:49:00,
2013-08-22 07:27:00,72.3,63.5,28.56,NE,45,2.0,6.0,74,0.00,,,0.00,meteohub,2013-08-22 12:27:00,
2013-08-22 07:32:00,72.5,64.0,28.56,East,90,0.0,6.0,75,0.00,,,0.00,meteohub,2013-08-22 12:32:00,
2013-08-22 07:37:00,72.5,63.7,28.57,SE,135,1.0,6.0,74,0.00,,,0.00,meteohub,2013-08-22 12:37:00,
2013-08-22 07:42:00,72.9,64.4,28.57,SE,135,1.0,4.0,75,0.00,,,0.00,meteohub,2013-08-22 12:42:00,
2013-08-22 07:47:00,73.4,64.6,28.57,East,90,1.0,2.0,74,0.00,,,0.00,meteohub,2013-08-22 12:47:00,
2013-08-22 07:52:00,73.4,64.6,28.57,East,90,1.0,2.0,74,0.00,,,0.00,meteohub,2013-08-22 12:52:00,
2013-08-22 07:57:00,73.8,64.9,28.58,East,90,1.0,1.0,74,0.00,,,0.00,meteohub,2013-08-22 12:57:00,
2013-08-22 08:00:00,73.8,64.6,28.58,East,90,1.0,1.0,73,0.00,,,0.00,meteohub,2013-08-22 13:00:00,
2013-08-22 08:05:00,73.9,64.8,28.58,SE,135,1.0,1.0,73,0.00,,,0.00,meteohub,2013-08-22 13:05:00,
2013-08-22 08:10:00,74.3,65.1,28.58,East,90,1.0,2.0,73,0.00,,,0.00,meteohub,2013-08-22 13:10:00,
2013-08-22 08:15:00,74.7,65.5,28.58,East,90,1.0,6.0,73,0.00,,,0.00,meteohub,2013-08-22 13:15:00,
2013-08-22 08:20:00,74.8,65.1,28.58,East,90,0.0,6.0,72,0.00,,,0.00,meteohub,2013-08-22 13:20:00,
2013-08-22 08:25:00,75.4,65.7,28.58,SE,135,1.0,6.0,72,0.00,,,0.00,meteohub,2013-08-22 13:25:00,
2013-08-22 08:30:00,76.1,66.0,28.58,SE,135,1.0,6.0,71,0.00,,,0.00,meteohub,2013-08-22 13:30:00,
2013-08-22 08:35:00,76.6,66.2,28.58,SE,135,1.0,6.0,70,0.00,,,0.00,meteohub,2013-08-22 13:35:00,
2013-08-22 08:40:00,77.0,66.0,28.58,SE,135,1.0,6.0,69,0.00,,,0.00,meteohub,2013-08-22 13:40:00,
2013-08-22 08:45:00,77.4,66.0,28.58,East,90,1.0,2.0,68,0.00,,,0.00,meteohub,2013-08-22 13:45:00,
2013-08-22 08:50:00,77.9,66.6,28.58,SW,225,1.0,2.0,68,0.00,,,0.00,meteohub,2013-08-22 13:50:00,
2013-08-22 08:55:00,78.3,66.4,28.59,SE,135,1.0,2.0,67,0.00,,,0.00,meteohub,2013-08-22 13:55:00,
2013-08-22 09:00:00,79.0,66.6,28.58,East,90,0.0,2.0,66,0.00,,,0.00,meteohub,2013-08-22 14:00:00,
2013-08-22 09:05:00,79.5,66.7,28.58,East,90,1.0,2.0,65,0.00,,,0.00,meteohub,2013-08-22 14:05:00,
2013-08-22 09:10:00,80.2,67.5,28.58,SW,225,1.0,1.0,65,0.00,,,0.00,meteohub,2013-08-22 14:10:00,
2013-08-22 09:15:00,81.0,67.1,28.59,SE,135,1.0,4.0,63,0.00,,,0.00,meteohub,2013-08-22 14:15:00,
2013-08-22 09:20:00,81.5,66.7,28.59,SW,225,2.0,4.0,61,0.00,,,0.00,meteohub,2013-08-22 14:20:00,
2013-08-22 09:25:00,81.1,66.4,28.58,East,90,1.0,4.0,61,0.00,,,0.00,meteohub,2013-08-22 14:25:00,
2013-08-22 09:30:00,81.1,66.9,28.59,East,90,3.0,4.0,62,0.00,,,0.00,meteohub,2013-08-22 14:30:00,
2013-08-22 09:35:00,81.7,66.9,28.59,SE,135,2.0,6.0,61,0.00,,,0.00,meteohub,2013-08-22 14:35:00,
2013-08-22 09:41:00,82.0,67.3,28.58,South,180,1.0,6.0,61,0.00,,,0.00,meteohub,2013-08-22 14:41:00,
2013-08-22 09:46:00,81.9,66.6,28.58,South,180,6.0,6.0,60,0.00,,,0.00,meteohub,2013-08-22 14:46:00,
2013-08-22 09:51:00,82.0,66.7,28.59,SW,225,5.0,6.0,60,0.00,,,0.00,meteohub,2013-08-22 14:51:00,
2013-08-22 09:56:00,81.9,66.6,28.58,West,270,8.0,8.0,60,0.00,,,0.00,meteohub,2013-08-22 14:56:00,
2013-08-22 10:01:00,81.9,67.1,28.59,West,270,8.0,9.0,61,0.00,,,0.00,meteohub,2013-08-22 15:01:00,
2013-08-22 10:06:00,82.2,66.9,28.59,SW,225,8.0,9.0,60,0.00,,,0.00,meteohub,2013-08-22 15:06:00,
2013-08-22 10:11:00,82.4,67.1,28.58,West,270,3.0,9.0,60,0.00,,,0.00,meteohub,2013-08-22 15:11:00,
2013-08-22 10:16:00,82.4,66.6,28.59,SW,225,4.0,8.0,59,0.00,,,0.00,meteohub,2013-08-22 15:16:00,
2013-08-22 10:21:00,83.3,66.9,28.60,SW,225,4.0,8.0,58,0.00,,,0.00,meteohub,2013-08-22 15:21:00,
2013-08-22 10:26:00,84.2,67.3,28.60,SW,225,0.0,8.0,57,0.00,,,0.00,meteohub,2013-08-22 15:26:00,
2013-08-22 10:31:00,85.5,67.5,28.59,East,90,1.0,4.0,55,0.00,,,0.00,meteohub,2013-08-22 15:31:00,
2013-08-22 10:36:00,86.0,67.5,28.59,SW,225,0.0,5.0,54,0.00,,,0.00,meteohub,2013-08-22 15:36:00,
2013-08-22 10:41:00,86.5,67.5,28.59,East,90,1.0,5.0,53,0.00,,,0.00,meteohub,2013-08-22 15:41:00,
2013-08-22 10:46:00,86.9,67.1,28.59,West,270,2.0,5.0,52,0.00,,,0.00,meteohub,2013-08-22 15:46:00,
2013-08-22 10:51:00,87.1,66.7,28.59,South,180,0.0,5.0,51,0.00,,,0.00,meteohub,2013-08-22 15:51:00,
2013-08-22 10:56:00,87.8,66.9,28.59,SW,225,1.0,4.0,50,0.00,,,0.00,meteohub,2013-08-22 15:56:00,
2013-08-22 11:01:00,88.5,66.9,28.59,South,180,1.0,4.0,49,0.00,,,0.00,meteohub,2013-08-22 16:01:00,
2013-08-22 11:06:00,88.7,65.8,28.59,West,270,7.0,7.0,47,0.00,,,0.00,meteohub,2013-08-22 16:06:00,
2013-08-22 11:11:00,88.5,66.4,28.59,SW,225,3.0,7.0,48,0.00,,,0.00,meteohub,2013-08-22 16:11:00,
2013-08-22 11:16:00,88.3,65.5,28.58,NW,315,3.0,7.0,47,0.00,,,0.00,meteohub,2013-08-22 16:16:00,
2013-08-22 11:21:00,88.5,66.4,28.58,NW,315,3.0,7.0,48,0.00,,,0.00,meteohub,2013-08-22 16:21:00,
2013-08-22 11:26:00,89.1,64.9,28.58,South,180,3.0,4.0,45,0.00,,,0.00,meteohub,2013-08-22 16:26:00,
2013-08-22 11:31:00,89.6,65.5,28.58,SW,225,4.0,5.0,45,0.00,,,0.00,meteohub,2013-08-22 16:31:00,
2013-08-22 11:36:00,90.3,66.0,28.58,WNW,293,1.0,5.0,45,0.00,,,0.00,meteohub,2013-08-22 16:36:00,
2013-08-22 11:41:00,91.0,66.7,28.58,South,180,1.0,5.0,45,0.00,,,0.00,meteohub,2013-08-22 16:41:00,
2013-08-22 11:46:00,91.8,66.0,28.57,North,0,1.0,4.0,43,0.00,,,0.00,meteohub,2013-08-22 16:46:00,
2013-08-22 11:51:00,92.5,66.0,28.57,West,270,2.0,4.0,42,0.00,,,0.00,meteohub,2013-08-22 16:51:00,
2013-08-22 11:56:00,92.3,63.7,28.57,SE,135,3.0,4.0,39,0.00,,,0.00,meteohub,2013-08-22 16:56:00,
2013-08-22 12:01:00,93.4,61.7,28.57,SW,225,6.0,7.0,35,0.00,,,0.00,meteohub,2013-08-22 17:01:00,
2013-08-22 12:06:00,92.1,61.3,28.57,NE,45,1.0,7.0,36,0.00,,,0.00,meteohub,2013-08-22 17:06:00,
2013-08-22 12:11:00,91.8,61.7,28.57,SSE,158,3.0,7.0,37,0.00,,,0.00,meteohub,2013-08-22 17:11:00,
2013-08-22 12:16:00,92.7,63.3,28.57,South,180,1.0,7.0,38,0.00,,,0.00,meteohub,2013-08-22 17:16:00,
2013-08-22 12:21:00,93.4,61.7,28.56,SW,225,5.0,7.0,35,0.00,,,0.00,meteohub,2013-08-22 17:21:00,
2013-08-22 12:26:00,93.4,61.7,28.56,SE,135,1.0,6.0,35,0.00,,,0.00,meteohub,2013-08-22 17:26:00,
2013-08-22 12:31:00,93.9,61.3,28.56,SE,135,2.0,5.0,34,0.00,,,0.00,meteohub,2013-08-22 17:31:00,
2013-08-22 12:36:00,95.0,59.5,28.55,SW,225,4.0,5.0,31,0.00,,,0.00,meteohub,2013-08-22 17:36:00,
2013-08-22 12:41:00,95.4,59.9,28.55,NW,315,5.0,5.0,31,0.00,,,0.00,meteohub,2013-08-22 17:41:00,
2013-08-22 12:46:00,94.8,58.5,28.55,East,90,2.0,6.0,30,0.00,,,0.00,meteohub,2013-08-22 17:46:00,
2013-08-22 12:51:00,95.2,58.8,28.54,East,90,3.0,9.0,30,0.00,,,0.00,meteohub,2013-08-22 17:51:00,
2013-08-22 12:56:00,96.1,59.5,28.54,East,90,7.0,9.0,30,0.00,,,0.00,meteohub,2013-08-22 17:56:00,
2013-08-22 13:01:00,96.6,58.1,28.54,SW,225,7.0,9.0,28,0.00,,,0.00,meteohub,2013-08-22 18:01:00,
2013-08-22 13:06:00,96.4,57.0,28.54,North,0,6.0,9.0,27,0.00,,,0.00,meteohub,2013-08-22 18:06:00,
2013-08-22 13:11:00,95.2,57.9,28.53,SW,225,10.0,10.0,29,0.00,,,0.00,meteohub,2013-08-22 18:11:00,
2013-08-22 13:16:00,94.5,58.3,28.53,South,180,7.0,10.0,30,0.00,,,0.00,meteohub,2013-08-22 18:16:00,
2013-08-22 13:21:00,94.8,57.6,28.53,SW,225,8.0,11.0,29,0.00,,,0.00,meteohub,2013-08-22 18:21:00,
2013-08-22 13:26:00,95.5,58.3,28.53,SW,225,8.0,11.0,29,0.00,,,0.00,meteohub,2013-08-22 18:26:00,
2013-08-22 13:31:00,95.7,58.5,28.53,West,270,4.0,11.0,29,0.00,,,0.00,meteohub,2013-08-22 18:31:00,
2013-08-22 13:36:00,95.9,58.5,28.53,South,180,2.0,11.0,29,0.00,,,0.00,meteohub,2013-08-22 18:36:00,
2013-08-22 13:41:00,96.4,57.9,28.53,South,180,4.0,9.0,28,0.00,,,0.00,meteohub,2013-08-22 18:41:00,
2013-08-22 13:46:00,96.1,55.6,28.53,South,180,4.0,11.0,26,0.00,,,0.00,meteohub,2013-08-22 18:46:00,
2013-08-22 13:51:00,95.5,58.3,28.53,East,90,6.0,11.0,29,0.00,,,0.00,meteohub,2013-08-22 18:51:00,
2013-08-22 13:56:00,95.7,58.5,28.53,SE,135,8.0,11.0,29,0.00,,,0.00,meteohub,2013-08-22 18:56:00,
2013-08-22 14:01:00,96.6,57.2,28.52,SE,135,4.0,8.0,27,0.00,,,0.00,meteohub,2013-08-22 19:01:00,
2013-08-22 14:06:00,97.0,57.4,28.51,SW,225,1.0,8.0,27,0.00,,,0.00,meteohub,2013-08-22 19:06:00,
2013-08-22 14:11:00,96.6,57.2,28.52,South,180,7.0,8.0,27,0.00,,,0.00,meteohub,2013-08-22 19:11:00,
2013-08-22 14:16:00,96.3,56.8,28.52,SE,135,10.0,13.0,27,0.00,,,0.00,meteohub,2013-08-22 19:16:00,
2013-08-22 14:21:00,97.2,56.5,28.52,East,90,15.0,15.0,26,0.00,,,0.00,meteohub,2013-08-22 19:21:00,
2013-08-22 14:26:00,98.2,56.3,28.51,SE,135,6.0,15.0,25,0.00,,,0.00,meteohub,2013-08-22 19:26:00,
2013-08-22 14:31:00,98.2,56.3,28.51,SE,135,8.0,15.0,25,0.00,,,0.00,meteohub,2013-08-22 19:31:00,
2013-08-22 14:36:00,97.5,56.8,28.51,East,90,9.0,15.0,26,0.00,,,0.00,meteohub,2013-08-22 19:36:00,
2013-08-22 14:41:00,98.1,58.5,28.50,SE,135,2.0,9.0,27,0.00,,,0.00,meteohub,2013-08-22 19:41:00,
2013-08-22 14:46:00,98.4,56.5,28.51,South,180,12.0,12.0,25,0.00,,,0.00,meteohub,2013-08-22 19:46:00,
2013-08-22 14:51:00,97.5,56.8,28.51,SW,225,8.0,17.0,26,0.00,,,0.00,meteohub,2013-08-22 19:51:00,
2013-08-22 14:56:00,96.8,56.3,28.50,South,180,2.0,17.0,26,0.00,,,0.00,meteohub,2013-08-22 19:56:00,
2013-08-22 15:02:00,97.7,58.1,28.50,East,90,4.0,17.0,27,0.00,,,0.00,meteohub,2013-08-22 20:02:00,
2013-08-22 15:07:00,99.1,58.3,28.50,SE,135,4.0,9.0,26,0.00,,,0.00,meteohub,2013-08-22 20:07:00,
2013-08-22 15:12:00,99.5,52.7,28.49,SW,225,11.0,11.0,21,0.00,,,0.00,meteohub,2013-08-22 20:12:00,
2013-08-22 15:17:00,98.2,55.2,28.49,East,90,4.0,11.0,24,0.00,,,0.00,meteohub,2013-08-22 20:17:00,
2013-08-22 15:22:00,97.7,55.9,28.49,South,180,10.0,11.0,25,0.00,,,0.00,meteohub,2013-08-22 20:22:00,
2013-08-22 15:27:00,97.5,53.4,28.48,SW,225,8.0,11.0,23,0.00,,,0.00,meteohub,2013-08-22 20:27:00,
2013-08-22 15:32:00,98.2,51.6,28.48,South,180,8.0,11.0,21,0.00,,,0.00,meteohub,2013-08-22 20:32:00,
2013-08-22 15:37:00,98.8,53.2,28.48,SW,225,2.0,11.0,22,0.00,,,0.00,meteohub,2013-08-22 20:37:00,
2013-08-22 15:42:00,100.2,50.5,28.48,South,180,7.0,11.0,19,0.00,,,0.00,meteohub,2013-08-22 20:42:00,
2013-08-22 15:47:00,100.8,49.5,28.48,SW,225,9.0,11.0,18,0.00,,,0.00,meteohub,2013-08-22 20:47:00,
2013-08-22 15:52:00,100.4,47.7,28.48,South,180,5.0,12.0,17,0.00,,,0.00,meteohub,2013-08-22 20:52:00,
2013-08-22 15:57:00,100.4,49.3,28.47,NW,315,10.0,12.0,18,0.00,,,0.00,meteohub,2013-08-22 20:57:00,
2013-08-22 16:02:00,99.1,49.6,28.47,SW,225,11.0,12.0,19,0.00,,,0.00,meteohub,2013-08-22 21:02:00,
2013-08-22 16:07:00,99.0,50.9,28.47,SE,135,5.0,11.0,20,0.00,,,0.00,meteohub,2013-08-22 21:07:00,
2013-08-22 16:12:00,99.9,48.7,28.47,SSW,203,7.0,11.0,18,0.00,,,0.00,meteohub,2013-08-22 21:12:00,
2013-08-22 16:17:00,100.0,48.9,28.46,West,270,10.0,11.0,18,0.00,,,0.00,meteohub,2013-08-22 21:17:00,
2013-08-22 16:22:00,99.5,45.3,28.46,South,180,6.0,17.0,16,0.00,,,0.00,meteohub,2013-08-22 21:22:00,
2013-08-22 16:27:00,99.1,45.1,28.46,SW,225,5.0,17.0,16,0.00,,,0.00,meteohub,2013-08-22 21:27:00,
2013-08-22 16:32:00,99.0,50.9,28.46,SE,135,6.0,14.0,20,0.00,,,0.00,meteohub,2013-08-22 21:32:00,
2013-08-22 16:37:00,98.1,51.4,28.45,SW,225,7.0,11.0,21,0.00,,,0.00,meteohub,2013-08-22 21:37:00,
2013-08-22 16:42:00,98.1,52.7,28.45,SE,135,1.0,9.0,22,0.00,,,0.00,meteohub,2013-08-22 21:42:00,
2013-08-22 16:47:00,99.0,53.4,28.45,South,180,3.0,9.0,22,0.00,,,0.00,meteohub,2013-08-22 21:47:00,
2013-08-22 16:52:00,100.4,50.7,28.45,SE,135,6.0,9.0,19,0.00,,,0.00,meteohub,2013-08-22 21:52:00,
2013-08-22 16:57:00,100.8,49.5,28.45,SW,225,9.0,9.0,18,0.00,,,0.00,meteohub,2013-08-22 21:57:00,
2013-08-22 17:02:00,99.7,47.1,28.45,SW,225,4.0,13.0,17,0.00,,,0.00,meteohub,2013-08-22 22:02:00,
2013-08-22 17:07:00,99.7,48.6,28.45,South,180,11.0,13.0,18,0.00,,,0.00,meteohub,2013-08-22 22:07:00,
2013-08-22 17:12:00,99.7,47.1,28.45,West,270,8.0,13.0,17,0.00,,,0.00,meteohub,2013-08-22 22:12:00,
2013-08-22 17:17:00,100.0,47.5,28.45,NW,315,7.0,11.0,17,0.00,,,0.00,meteohub,2013-08-22 22:17:00,
2013-08-22 17:22:00,100.0,47.5,28.44,SW,225,8.0,11.0,17,0.00,,,0.00,meteohub,2013-08-22 22:22:00,
2013-08-22 17:27:00,100.2,49.1,28.44,South,180,5.0,11.0,18,0.00,,,0.00,meteohub,2013-08-22 22:27:00,
2013-08-22 17:32:00,100.6,47.8,28.44,NW,315,8.0,10.0,17,0.00,,,0.00,meteohub,2013-08-22 22:32:00,
2013-08-22 17:37:00,100.0,50.4,28.44,South,180,9.0,9.0,19,0.00,,,0.00,meteohub,2013-08-22 22:37:00,
2013-08-22 17:42:00,100.2,52.0,28.44,South,180,6.0,9.0,20,0.00,,,0.00,meteohub,2013-08-22 22:42:00,
2013-08-22 17:47:00,100.9,51.1,28.44,NE,45,4.0,9.0,19,0.00,,,0.00,meteohub,2013-08-22 22:47:00,
2013-08-22 17:52:00,101.1,52.7,28.44,SSW,203,6.0,9.0,20,0.00,,,0.00,meteohub,2013-08-22 22:52:00,
2013-08-22 17:56:00,100.9,53.8,28.44,South,180,4.0,11.0,21,0.00,,,0.00,meteohub,2013-08-22 22:56:00,
2013-08-22 18:01:00,101.1,52.7,28.44,East,90,9.0,11.0,20,0.00,,,0.00,meteohub,2013-08-22 23:01:00,
2013-08-22 18:07:00,100.9,52.5,28.43,SW,225,4.0,11.0,20,0.00,,,0.00,meteohub,2013-08-22 23:07:00,
2013-08-22 18:12:00,101.3,52.9,28.43,East,90,4.0,9.0,20,0.00,,,0.00,meteohub,2013-08-22 23:12:00,
2013-08-22 18:17:00,100.9,51.1,28.43,South,180,8.0,9.0,19,0.00,,,0.00,meteohub,2013-08-22 23:17:00,
2013-08-22 18:22:00,99.9,52.9,28.43,East,90,8.0,12.0,21,0.00,,,0.00,meteohub,2013-08-22 23:22:00,
2013-08-22 18:27:00,99.7,54.1,28.43,SE,135,6.0,12.0,22,0.00,,,0.00,meteohub,2013-08-22 23:27:00,
2013-08-22 18:32:00,99.3,55.0,28.43,East,90,8.0,12.0,23,0.00,,,0.00,meteohub,2013-08-22 23:32:00,
2013-08-22 18:37:00,98.4,54.3,28.43,SE,135,5.0,10.0,23,0.00,,,0.00,meteohub,2013-08-22 23:37:00,
2013-08-22 18:42:00,98.4,54.3,28.43,NE,45,5.0,8.0,23,0.00,,,0.00,meteohub,2013-08-22 23:42:00,
2013-08-22 18:47:00,98.6,54.3,28.43,South,180,3.0,11.0,23,0.00,,,0.00,meteohub,2013-08-22 23:47:00,
2013-08-22 18:52:00,99.1,53.6,28.43,West,270,1.0,11.0,22,0.00,,,0.00,meteohub,2013-08-22 23:52:00,
2013-08-22 18:57:00,98.6,54.3,28.43,West,270,1.0,11.0,23,0.00,,,0.00,meteohub,2013-08-22 23:57:00,
2013-08-22 19:02:00,98.1,54.0,28.43,East,90,4.0,7.0,23,0.00,,,0.00,meteohub,2013-08-23 00:02:00,
2013-08-22 19:07:00,97.3,54.5,28.43,SE,135,2.0,7.0,24,0.00,,,0.00,meteohub,2013-08-23 00:07:00,
2013-08-22 19:12:00,97.3,54.5,28.43,SE,135,2.0,7.0,24,0.00,,,0.00,meteohub,2013-08-23 00:12:00,
2013-08-22 19:17:00,97.5,54.7,28.43,East,90,5.0,7.0,24,0.00,,,0.00,meteohub,2013-08-23 00:17:00,
2013-08-22 19:22:00,97.2,55.4,28.43,SE,135,2.0,6.0,25,0.00,,,0.00,meteohub,2013-08-23 00:22:00,
2013-08-22 19:27:00,96.8,55.2,28.42,NE,45,4.0,6.0,25,0.00,,,0.00,meteohub,2013-08-23 00:27:00,
2013-08-22 19:32:00,96.6,55.0,28.42,South,180,6.0,6.0,25,0.00,,,0.00,meteohub,2013-08-23 00:32:00,
2013-08-22 19:37:00,96.6,55.0,28.43,SE,135,2.0,8.0,25,0.00,,,0.00,meteohub,2013-08-23 00:37:00,
2013-08-22 19:42:00,96.1,55.6,28.43,NE,45,5.0,8.0,26,0.00,,,0.00,meteohub,2013-08-23 00:42:00,
2013-08-22 19:47:00,95.7,55.4,28.43,East,90,4.0,8.0,26,0.00,,,0.00,meteohub,2013-08-23 00:47:00,
2013-08-22 19:52:00,95.2,54.9,28.43,East,90,1.0,7.0,26,0.00,,,0.00,meteohub,2013-08-23 00:52:00,
2013-08-22 19:57:00,95.0,55.8,28.43,SE,135,4.0,7.0,27,0.00,,,0.00,meteohub,2013-08-23 00:57:00,
2013-08-22 20:02:00,94.6,55.4,28.43,SE,135,2.0,7.0,27,0.00,,,0.00,meteohub,2013-08-23 01:02:00,
2013-08-22 20:07:00,93.7,54.7,28.43,South,180,2.0,7.0,27,0.00,,,0.00,meteohub,2013-08-23 01:07:00,
2013-08-22 20:12:00,93.6,55.6,28.43,East,90,1.0,7.0,28,0.00,,,0.00,meteohub,2013-08-23 01:12:00,
2013-08-22 20:17:00,93.0,56.1,28.44,SSE,158,1.0,4.0,29,0.00,,,0.00,meteohub,2013-08-23 01:17:00,
2013-08-22 20:22:00,92.7,55.8,28.44,East,90,1.0,4.0,29,0.00,,,0.00,meteohub,2013-08-23 01:22:00,
2013-08-22 20:27:00,92.5,56.5,28.44,East,90,1.0,7.0,30,0.00,,,0.00,meteohub,2013-08-23 01:27:00,
2013-08-22 20:32:00,91.6,55.8,28.45,SE,135,1.0,7.0,30,0.00,,,0.00,meteohub,2013-08-23 01:32:00,
2013-08-22 20:37:00,91.8,56.8,28.45,East,90,6.0,6.0,31,0.00,,,0.00,meteohub,2013-08-23 01:37:00,
2013-08-22 20:42:00,91.4,57.4,28.45,ESE,113,3.0,7.0,32,0.00,,,0.00,meteohub,2013-08-23 01:42:00,
2013-08-22 20:47:00,90.9,56.8,28.45,SE,135,1.0,7.0,32,0.00,,,0.00,meteohub,2013-08-23 01:47:00,
2013-08-22 20:52:00,90.9,56.8,28.45,East,90,1.0,6.0,32,0.00,,,0.00,meteohub,2013-08-23 01:52:00,
2013-08-22 20:57:00,90.1,57.2,28.45,SE,135,4.0,5.0,33,0.00,,,0.00,meteohub,2013-08-23 01:57:00,
2013-08-22 21:02:00,90.1,57.2,28.46,SE,135,4.0,5.0,33,0.00,,,0.00,meteohub,2013-08-23 02:02:00,
2013-08-22 21:07:00,90.1,57.2,28.45,East,90,5.0,8.0,33,0.00,,,0.00,meteohub,2013-08-23 02:07:00,
2013-08-22 21:12:00,89.8,57.7,28.46,East,90,1.0,8.0,34,0.00,,,0.00,meteohub,2013-08-23 02:12:00,
2013-08-22 21:17:00,89.4,57.4,28.46,East,90,1.0,8.0,34,0.00,,,0.00,meteohub,2013-08-23 02:17:00,
2013-08-22 21:22:00,89.4,58.1,28.46,East,90,4.0,5.0,35,0.00,,,0.00,meteohub,2013-08-23 02:22:00,
2013-08-22 21:27:00,89.1,57.9,28.46,East,90,6.0,7.0,35,0.00,,,0.00,meteohub,2013-08-23 02:27:00,
2013-08-22 21:32:00,89.1,57.9,28.47,East,90,1.0,7.0,35,0.00,,,0.00,meteohub,2013-08-23 02:32:00,
2013-08-22 21:37:00,89.1,57.9,28.47,SE,135,4.0,6.0,35,0.00,,,0.00,meteohub,2013-08-23 02:37:00,
2013-08-22 21:42:00,88.7,58.3,28.47,NE,45,1.0,7.0,36,0.00,,,0.00,meteohub,2013-08-23 02:42:00,
2013-08-22 21:47:00,88.3,57.9,28.47,NE,45,2.0,7.0,36,0.00,,,0.00,meteohub,2013-08-23 02:47:00,
2013-08-22 21:52:00,88.2,58.6,28.48,ESE,113,2.0,7.0,37,0.00,,,0.00,meteohub,2013-08-23 02:52:00,
2013-08-22 21:57:00,87.8,59.0,28.47,NE,45,5.0,7.0,38,0.00,,,0.00,meteohub,2013-08-23 02:57:00,
2013-08-22 22:02:00,87.8,59.0,28.48,NE,45,2.0,7.0,38,0.00,,,0.00,meteohub,2013-08-23 03:02:00,
2013-08-22 22:07:00,87.8,59.0,28.48,North,0,9.0,9.0,38,0.00,,,0.00,meteohub,2013-08-23 03:07:00,
2013-08-22 22:12:00,87.4,59.4,28.48,NE,45,4.0,9.0,39,0.00,,,0.00,meteohub,2013-08-23 03:12:00,
2013-08-22 22:17:00,87.1,59.9,28.49,East,90,9.0,11.0,40,0.00,,,0.00,meteohub,2013-08-23 03:17:00,
2013-08-22 22:22:00,86.9,60.4,28.48,East,90,10.0,12.0,41,0.00,,,0.00,meteohub,2013-08-23 03:22:00,
2013-08-22 22:27:00,86.7,60.8,28.48,East,90,8.0,12.0,42,0.00,,,0.00,meteohub,2013-08-23 03:27:00,
2013-08-22 22:32:00,86.2,61.0,28.49,East,90,4.0,12.0,43,0.00,,,0.00,meteohub,2013-08-23 03:32:00,
2013-08-22 22:37:00,86.0,61.5,28.49,SE,135,5.0,11.0,44,0.00,,,0.00,meteohub,2013-08-23 03:37:00,
2013-08-22 22:42:00,86.0,62.2,28.49,SE,135,8.0,11.0,45,0.00,,,0.00,meteohub,2013-08-23 03:42:00,
2013-08-22 22:47:00,85.6,62.4,28.50,SE,135,2.0,11.0,46,0.00,,,0.00,meteohub,2013-08-23 03:47:00,
2013-08-22 22:52:00,85.6,63.1,28.49,East,90,7.0,11.0,47,0.00,,,0.00,meteohub,2013-08-23 03:52:00,
2013-08-22 22:57:00,85.6,63.1,28.49,SE,135,5.0,9.0,47,0.00,,,0.00,meteohub,2013-08-23 03:57:00,
2013-08-22 23:01:00,85.3,62.8,28.49,East,90,2.0,10.0,47,0.00,,,0.00,meteohub,2013-08-23 04:01:00,
2013-08-22 23:06:00,85.5,63.5,28.49,East,90,6.0,10.0,48,0.00,,,0.00,meteohub,2013-08-23 04:06:00,
2013-08-22 23:11:00,85.3,63.3,28.50,East,90,2.0,10.0,48,0.00,,,0.00,meteohub,2013-08-23 04:11:00,
2013-08-22 23:16:00,85.3,64.0,28.49,East,90,8.0,10.0,49,0.00,,,0.00,meteohub,2013-08-23 04:16:00,
2013-08-22 23:21:00,85.3,64.0,28.50,North,0,7.0,10.0,49,0.00,,,0.00,meteohub,2013-08-23 04:21:00,
2013-08-22 23:26:00,84.9,63.7,28.50,North,0,4.0,8.0,49,0.00,,,0.00,meteohub,2013-08-23 04:26:00,
2013-08-22 23:31:00,84.9,64.2,28.50,SE,135,4.0,8.0,50,0.00,,,0.00,meteohub,2013-08-23 04:31:00,
2013-08-22 23:36:00,85.1,64.4,28.51,SE,135,7.0,8.0,50,0.00,,,0.00,meteohub,2013-08-23 04:36:00,
2013-08-22 23:41:00,84.9,64.2,28.51,East,90,6.0,8.0,50,0.00,,,0.00,meteohub,2013-08-23 04:41:00,
2013-08-22 23:47:00,84.7,64.0,28.51,SW,225,7.0,8.0,50,0.00,,,0.00,meteohub,2013-08-23 04:47:00,
2013-08-22 23:51:00,84.7,64.6,28.50,ENE,68,7.0,8.0,51,0.00,,,0.00,meteohub,2013-08-23 04:51:00,
2013-08-22 23:56:00,84.6,64.4,28.51,North,0,3.0,8.0,51,0.00,,,0.00,meteohub,2013-08-23 04:56:00,